Weather History for Baton Rouge, LA

Change the Weather History Date:

Saturday, February 9, 2013

  Actual Average Record
Temperature  
Mean Temperature 57 °F 54 °F  
Max Temperature 65 °F 65 °F 83 °F (1911)
Min Temperature 49 °F 43 °F 17 °F (1933)
Degree Days  
Heating Degree Days 8 12  
Month to date heating degree days 65 111  
Since 1 July heating degree days 983 1151  
Cooling Degree Days 0 1  
Month to date cooling degree days 0 7  
Year to date cooling degree days 21 20  
Growing Degree Days 6 (Base 50)    
Moisture  
Dew Point 51 °F    
Average Humidity 83    
Maximum Humidity 93    
Minimum Humidity 72    
Precipitation  
Precipitation 0.00 in 0.18 in 1.77 in (1984)
Month to date precipitation 0.84 1.69  
Year to date precipitation 15.51 7.41  
Snow  
Snow 0.00 in - - ()
Month to date snowfall 0.0  
Since 1 July snowfall 0.0  
Snow Depth 0.00 in    
Sea Level Pressure  
Sea Level Pressure 30.13 in    
Wind  
Wind Speed 10 mph (East)    
Max Wind Speed 16 mph    
Max Gust Speed 21 mph    
Visibility 10 miles    
Events Rain    
T = Trace of Precipitation, MM = Missing Value Source: NWS Daily Summary

Daily Weather History Graph

Daily Weather History Graph

Search for Another Location

Airport:

Trip Planner

Search our weather history database for the weather conditions in past years. The results will help you decide how hot, cold, wet, or windy it might be!

Date:

Astronomy

Feb. 09, 2013 Rise Set
Actual Time 6:49 AM CST 5:48 PM CST
Civil Twilight 6:25 AM CST 6:12 PM CST
Nautical Twilight 5:56 AM CST 6:41 PM CST
Astronomical Twilight 5:28 AM CST 7:09 PM CST
Moon 6:02 AM CST (2/9) 5:28 PM CST (2/9)
Length of Visible Light 11h 47m
Length of Day
10h 58m
Waning Crescent, 0% of the Moon is Illuminated
Feb 9
Waning Crescent
Feb 10
New
Feb 17
First Quarter
Feb 25
Full
Mar 4
Last Quarter

Hourly Weather History & Observations

Time (CST) Temp. Dew Point Humidity Pressure Visibility Wind Dir Wind Speed Gust Speed Precip Events Conditions
12:53 AM 54.0 °F 48.0 °F 80% 30.17 in 10.0 mi ENE 6.9 mph - N/A   Overcast
1:53 AM 54.0 °F 48.0 °F 80% 30.17 in 10.0 mi ENE 9.2 mph - N/A   Overcast
2:53 AM 53.1 °F 46.9 °F 80% 30.16 in 10.0 mi East 11.5 mph - N/A   Overcast
3:25 AM 51.8 °F 46.4 °F 82% 30.15 in 10.0 mi ENE 12.7 mph - N/A   Scattered Clouds
3:35 AM 51.8 °F 46.4 °F 82% 30.15 in 10.0 mi ENE 10.4 mph - N/A   Mostly Cloudy
3:53 AM 52.0 °F 46.0 °F 80% 30.16 in 10.0 mi ENE 6.9 mph - N/A   Overcast
4:53 AM 52.0 °F 46.9 °F 83% 30.17 in 10.0 mi East 6.9 mph - N/A   Overcast
5:10 AM 51.8 °F 46.4 °F 82% 30.17 in 10.0 mi East 6.9 mph - N/A   Mostly Cloudy
5:53 AM 50.0 °F 45.0 °F 83% 30.18 in 10.0 mi East 11.5 mph - N/A   Clear
6:53 AM 48.9 °F 44.1 °F 83% 30.19 in 10.0 mi East 9.2 mph - N/A   Scattered Clouds
7:02 AM 48.2 °F 44.6 °F 87% 30.19 in 10.0 mi East 9.2 mph - N/A   Mostly Cloudy
7:53 AM 50.0 °F 44.1 °F 80% 30.21 in 10.0 mi East 9.2 mph - N/A   Overcast
8:53 AM 51.8 °F 44.6 °F 76% 30.22 in 10.0 mi East 9.2 mph - N/A   Overcast
9:53 AM 53.1 °F 46.9 °F 80% 30.22 in 10.0 mi East 6.9 mph - N/A   Mostly Cloudy
10:53 AM 57.9 °F 48.9 °F 72% 30.22 in 10.0 mi East 8.1 mph - N/A   Scattered Clouds
11:53 AM 59.0 °F 50.0 °F 72% 30.18 in 10.0 mi East 8.1 mph - N/A   Scattered Clouds
12:53 PM 63.0 °F 53.1 °F 70% 30.14 in 10.0 mi ESE 11.5 mph - N/A   Scattered Clouds
1:53 PM 63.0 °F 53.1 °F 70% 30.12 in 10.0 mi SE 13.8 mph 17.3 mph N/A   Mostly Cloudy
2:53 PM 62.1 °F 54.0 °F 75% 30.11 in 10.0 mi SE 10.4 mph - N/A   Overcast
3:53 PM 63.0 °F 54.0 °F 72% 30.09 in 10.0 mi SE 9.2 mph - N/A   Overcast
4:50 PM 60.8 °F 55.4 °F 82% 30.08 in 10.0 mi ESE 12.7 mph - N/A   Scattered Clouds
4:53 PM 61.0 °F 55.0 °F 81% 30.08 in 10.0 mi ESE 10.4 mph - N/A   Scattered Clouds
5:35 PM 60.8 °F 55.4 °F 82% 30.08 in 10.0 mi ESE 9.2 mph - N/A   Mostly Cloudy
5:53 PM 60.1 °F 55.0 °F 83% 30.08 in 10.0 mi ESE 9.2 mph - N/A   Mostly Cloudy
6:53 PM 59.0 °F 55.0 °F 87% 30.07 in 10.0 mi ESE 8.1 mph - N/A   Scattered Clouds
7:17 PM 59.0 °F 55.4 °F 88% 30.07 in 10.0 mi ESE 11.5 mph - N/A   Mostly Cloudy
7:53 PM 59.0 °F 55.9 °F 90% 30.07 in 10.0 mi ESE 11.5 mph - N/A   Mostly Cloudy
8:00 PM 59.0 °F 55.4 °F 88% 30.07 in 10.0 mi East 11.5 mph - N/A   Mostly Cloudy
8:10 PM 57.2 °F 55.4 °F 94% 30.07 in 10.0 mi ESE 12.7 mph - N/A   Mostly Cloudy
8:18 PM 59.0 °F 55.4 °F 88% 30.07 in 10.0 mi ESE 10.4 mph - N/A   Mostly Cloudy
8:53 PM 59.0 °F 57.0 °F 93% 30.06 in 10.0 mi East 11.5 mph - N/A   Mostly Cloudy
9:53 PM 60.1 °F 57.0 °F 90% 30.04 in 10.0 mi ESE 12.7 mph - N/A   Overcast
10:53 PM 61.0 °F 57.9 °F 90% 30.05 in 10.0 mi ESE 12.7 mph - N/A   Overcast
11:53 PM 61.0 °F 59.0 °F 93% 30.03 in 8.0 mi ESE 13.8 mph - 0.00 in Rain Light Rain